Wind_Speed
21 21 22 22 23 23 23 23 23 23 22 23 23 23 23 24 25 25 25 25 25 26 26 26 26 26 25 25 24 24 24 23 23 23 23 23 23 23
22 22 22 23 23 23 24 24 24 25 24 23 24 25 25 25 26 26 26 25 25 25 26 26 26 26 26 25 24 25 25 25 24 24 24 23 23 23
23 23 23 23 24 24 24 24 25 25 25 24 25 25 26 26 26 26 26 26 26 26 26 25 25 25 26 25 24 24 24 24 25 25 25 24 24 24
24 24 24 24 24 24 24 25 26 26 25 24 25 26 26 26 26 25 25 26 26 26 26 26 26 26 25 25 25 25 25 25 25 25 25 25 24 24
25 25 25 25 25 25 26 26 26 26 26 25 26 26 27 27 27 26 26 27 27 26 26 26 26 26 26 25 25 25 25 25 25 26 26 26 26 25
27 27 27 28 28 28 28 28 28 27 27 26 26 27 27 27 27 26 26 26 26 26 26 27 27 26 26 26 25 25 25 25 25 25 24 25 25 25
29 29 29 29 29 29 30 30 29 29 28 28 28 27 28 28 28 27 27 26 27 26 26 26 26 25 25 26 26 25 25 25 25 24 24 24 25 25
30 30 30 30 30 30 30 31 30 30 30 30 30 28 28 28 28 27 27 27 26 26 26 24 24 24 25 24 25 25 25 25 25 24 25 25 25 25
30 30 30 30 30 30 30 31 31 31 31 29 29 28 28 27 26 26 26 26 26 25 25 24 25 25 25 25 25 25 25 25 25 26 26 25 26 26
31 31 31 30 30 30 30 31 32 31 30 30 29 28 27 27 27 26 26 26 26 25 24 25 25 26 25 25 26 26 25 25 25 25 25 25 25 25
31 30 30 30 30 30 30 31 31 30 30 30 29 28 28 28 28 27 27 26 26 25 25 25 25 26 26 26 27 27 26 26 26 26 26 25 25 25
31 31 30 30 31 31 31 31 30 30 30 31 30 29 28 28 28 28 28 27 27 26 26 27 27 27 27 27 27 28 27 27 26 26 26 26 26 26
31 31 31 32 32 32 32 32 32 31 31 31 31 30 29 29 29 29 28 28 27 27 28 28 28 28 28 27 28 28 28 27 27 26 27 26 26 26
30 30 31 32 32 32 32 32 32 31 31 31 31 30 29 29 29 29 28 29 28 28 28 28 28 28 28 28 28 29 28 28 27 27 28 28 27 27
31 31 31 32 31 31 32 32 32 31 31 31 31 30 29 29 28 29 29 29 29 29 29 29 29 29 29 29 29 29 28 28 28 28 28 29 28 27
32 31 31 31 32 32 32 32 32 31 31 31 31 30 30 29 28 29 29 29 29 30 30 30 30 30 30 30 30 29 29 29 29 28 29 29 28 28
31 31 32 32 32 32 31 32 32 32 31 31 31 31 30 29 29 29 29 29 30 30 30 30 30 30 30 31 30 30 29 29 28 28 27 27 28 28
31 31 31 31 32 32 31 31 31 31 31 32 32 32 31 31 31 30 30 30 30 31 30 30 30 30 29 29 29 29 29 28 28 27 27 27 27 27
30 31 30 30 30 31 31 30 31 31 32 32 32 31 31 31 31 31 31 31 31 31 31 30 30 30 29 29 28 28 28 27 27 26 26 27 27 26
30 30 30 30 31 31 31 31 31 31 31 31 32 32 32 32 32 31 31 31 31 31 31 30 30 29 29 28 27 27 27 27 26 25 25 25 25 24
29 29 30 30 31 31 31 30 31 31 31 31 31 31 31 31 31 30 30 30 30 29 29 29 29 28 28 27 26 25 25 25 25 24 24 24 24 23
28 29 29 30 30 30 30 30 30 30 30 30 30 30 30 30 29 29 29 29 29 28 28 28 27 27 26 26 25 24 23 23 22 22 23 23 23 23
27 28 28 29 29 29 29 29 29 29 29 29 29 29 29 29 28 28 28 28 27 27 27 27 26 25 25 24 23 22 21 21 21 22 22 22 22 22
Wind_Direction
296 297 299 299 297 296 295 296 297 297 296 294 292 292 293 294 294 291 289 288 287 287 285 283 281 282 281 277 275 274 274 274 274 272 271 270 267 266
294 295 296 295 294 293 293 294 295 297 297 296 292 291 292 293 295 294 291 290 289 288 285 281 280 281 280 278 276 274 273 273 272 271 270 269 269 269
293 293 293 292 293 291 292 295 296 297 297 295 294 294 294 292 293 292 291 290 290 288 286 283 281 279 279 278 277 275 274 275 273 271 270 269 270 270
291 291 291 291 293 295 294 296 297 297 297 294 295 297 296 294 294 293 291 291 290 289 286 283 282 281 279 278 277 275 274 274 273 271 269 269 269 269
291 290 290 290 290 292 294 296 297 296 295 294 295 297 296 295 294 294 292 290 289 288 286 284 283 282 280 279 277 275 273 273 273 271 269 269 269 267
291 289 289 288 287 288 291 294 296 295 293 293 294 296 296 296 295 294 292 292 290 287 285 283 281 281 282 281 279 277 276 274 271 269 269 270 269 266
289 288 287 287 286 286 288 291 293 294 293 294 295 296 296 295 296 293 291 292 291 289 287 284 282 282 283 282 281 278 276 274 272 269 270 268 266 265
287 287 286 286 285 285 287 289 290 292 293 293 293 295 295 294 294 294 292 292 290 288 287 285 284 285 285 282 281 280 279 275 273 272 272 269 266 265
287 286 285 286 286 285 286 287 288 289 291 292 293 295 294 293 294 294 293 293 292 290 287 287 286 287 285 283 284 284 281 277 273 272 270 267 266 266
287 287 286 286 286 286 285 286 287 289 290 290 291 291 291 291 293 294 293 292 292 290 288 288 288 287 286 285 285 286 282 278 274 273 269 267 265 265
288 289 286 285 288 290 288 287 287 289 291 292 290 289 288 290 290 291 292 291 291 290 289 289 289 288 287 287 286 286 285 281 276 273 269 267 265 264
286 286 284 285 288 290 290 289 288 289 291 292 291 289 288 289 290 291 292 291 290 289 288 288 288 287 286 286 286 285 284 283 279 273 269 266 264 263
285 283 283 284 286 287 287 288 288 289 291 290 291 290 288 288 289 291 292 292 291 290 288 287 286 286 285 284 284 284 283 280 278 274 269 267 266 264
286 284 285 286 285 285 286 287 287 288 288 289 290 291 290 290 290 291 291 291 291 291 290 287 286 285 284 284 284 285 282 279 276 274 269 266 265 264
287 285 285 285 285 285 286 287 287 287 288 288 289 290 290 290 290 290 291 290 289 290 290 288 285 284 284 284 285 284 281 278 276 273 268 265 263 263
288 287 286 285 285 285 286 286 288 288 288 289 289 289 288 288 288 289 290 289 289 290 291 288 286 284 283 283 284 282 281 279 276 274 270 266 263 262
288 286 286 287 286 286 285 286 287 287 287 288 288 288 287 287 287 287 288 288 289 290 289 288 286 285 283 283 282 281 281 279 277 275 269 265 263 261
289 288 288 287 286 286 285 285 286 287 286 288 289 288 287 288 287 287 288 288 289 290 289 288 287 286 285 285 283 281 279 278 276 273 268 264 261 260
289 288 288 288 287 286 285 285 286 287 286 287 288 290 288 288 287 287 287 288 288 288 288 288 287 288 286 285 282 281 280 278 275 270 266 263 260 258
287 287 287 288 288 287 286 286 287 288 288 288 288 288 289 289 288 286 287 288 288 287 287 288 288 289 288 287 285 283 281 279 275 270 266 261 258 257
288 288 287 288 288 288 287 287 288 288 288 289 288 288 289 290 288 287 288 289 289 288 287 287 287 287 288 288 288 287 283 278 274 271 267 263 260 258
291 290 289 289 289 289 288 288 288 288 288 287 287 287 289 289 288 287 288 288 287 288 287 286 284 283 285 287 286 287 284 278 274 271 268 264 260 256
292 291 291 292 292 292 291 289 289 289 288 288 288 288 289 289 287 286 287 288 287 287 287 286 284 284 285 287 287 286 283 278 274 272 269 265 259 254
Height
5841 5839 5837 5835 5833 5831 5829 5827 5826 5824 5822 5820 5817 5815 5813 5811 5808 5806 5804 5803 5802 5800 5799 5799 5798 5797 5796 5795 5795 5795 5794 5794 5794 5794 5793 5793 5793 5793
5836 5834 5831 5829 5827 5825 5824 5822 5820 5818 5816 5814 5812 5809 5807 5805 5802 5799 5797 5796 5794 5793 5792 5791 5791 5790 5789 5788 5788 5788 5787 5787 5787 5787 5787 5786 5786 5786
5830 5828 5826 5824 5821 5819 5817 5815 5813 5811 5810 5808 5805 5803 5801 5798 5795 5793 5791 5789 5787 5786 5785 5784 5784 5783 5782 5781 5781 5781 5780 5780 5780 5779 5779 5779 5779 5779
5824 5822 5820 5818 5816 5814 5811 5809 5807 5805 5803 5801 5799 5796 5794 5791 5789 5786 5784 5782 5781 5779 5778 5777 5777 5776 5775 5774 5774 5773 5773 5773 5772 5772 5772 5773 5772 5772
5817 5815 5813 5811 5809 5807 5805 5803 5801 5798 5796 5794 5792 5790 5787 5785 5782 5780 5778 5776 5774 5773 5771 5770 5770 5769 5768 5767 5766 5766 5765 5765 5765 5765 5765 5765 5765 5765
5809 5807 5806 5804 5802 5800 5798 5796 5794 5791 5789 5787 5785 5783 5781 5778 5776 5774 5771 5769 5767 5766 5764 5763 5762 5762 5761 5760 5759 5758 5758 5757 5757 5757 5757 5758 5758 5758
5801 5799 5797 5795 5794 5792 5790 5788 5786 5784 5782 5780 5778 5776 5774 5771 5769 5767 5764 5762 5761 5759 5757 5756 5755 5754 5753 5752 5751 5751 5750 5750 5750 5750 5750 5750 5751 5751
5793 5791 5789 5787 5785 5784 5782 5780 5778 5776 5774 5773 5771 5769 5766 5764 5762 5760 5757 5756 5754 5753 5751 5749 5748 5747 5746 5745 5744 5743 5742 5742 5742 5742 5742 5742 5743 5743
5784 5782 5780 5778 5776 5775 5773 5772 5770 5768 5766 5765 5763 5761 5759 5757 5755 5753 5750 5748 5747 5745 5744 5742 5741 5740 5739 5738 5737 5736 5735 5734 5734 5734 5734 5735 5735 5736
5774 5772 5771 5769 5767 5766 5764 5763 5761 5759 5757 5756 5755 5753 5751 5749 5747 5746 5743 5741 5740 5738 5737 5736 5734 5732 5731 5730 5729 5728 5728 5727 5726 5726 5727 5727 5728 5728
5766 5764 5762 5760 5759 5757 5756 5754 5753 5751 5749 5747 5746 5744 5742 5741 5739 5738 5736 5734 5732 5731 5729 5728 5727 5725 5724 5723 5721 5720 5720 5719 5719 5719 5719 5719 5720 5721
5757 5756 5754 5752 5750 5749 5747 5746 5744 5742 5741 5739 5737 5736 5734 5733 5731 5729 5728 5726 5724 5723 5722 5720 5719 5718 5717 5715 5714 5713 5712 5711 5711 5710 5711 5711 5712 5712
5748 5746 5744 5743 5742 5740 5739 5737 5736 5734 5732 5730 5729 5727 5725 5724 5722 5721 5719 5718 5716 5715 5714 5712 5711 5709 5708 5707 5706 5705 5703 5702 5702 5702 5702 5703 5703 5704
5739 5737 5735 5734 5732 5731 5729 5728 5726 5725 5723 5722 5720 5718 5717 5715 5714 5712 5710 5709 5707 5706 5705 5703 5702 5701 5699 5698 5697 5696 5694 5693 5693 5693 5693 5694 5694 5695
5729 5728 5726 5725 5723 5722 5720 5718 5717 5715 5714 5712 5711 5709 5708 5706 5705 5703 5702 5700 5699 5697 5695 5694 5693 5691 5690 5689 5688 5687 5685 5684 5684 5684 5684 5684 5685 5686
5720 5718 5716 5715 5714 5712 5711 5709 5708 5706 5705 5703 5701 5700 5698 5697 5696 5694 5693 5691 5690 5688 5686 5684 5683 5682 5680 5679 5678 5677 5676 5675 5675 5674 5674 5675 5675 5676
5710 5708 5707 5706 5704 5703 5701 5700 5698 5697 5695 5694 5692 5690 5689 5688 5686 5685 5683 5682 5681 5679 5677 5675 5674 5672 5670 5669 5668 5667 5666 5666 5665 5665 5665 5666 5666 5667
5701 5699 5697 5696 5695 5693 5692 5690 5689 5687 5686 5684 5682 5681 5679 5678 5677 5675 5674 5672 5671 5669 5667 5666 5664 5663 5661 5660 5658 5657 5657 5656 5656 5655 5656 5657 5658 5659
5691 5690 5688 5687 5685 5683 5682 5681 5679 5678 5676 5675 5673 5671 5670 5668 5667 5666 5664 5663 5661 5660 5657 5656 5654 5653 5652 5651 5649 5647 5647 5646 5646 5646 5646 5647 5648 5650
5682 5681 5679 5678 5676 5674 5673 5671 5670 5669 5667 5666 5664 5662 5660 5659 5657 5656 5655 5653 5652 5650 5648 5646 5645 5643 5642 5641 5640 5638 5637 5636 5636 5637 5637 5638 5639 5640
5673 5672 5670 5669 5667 5666 5664 5662 5661 5660 5658 5656 5655 5653 5651 5649 5648 5646 5645 5644 5642 5640 5639 5637 5636 5634 5633 5632 5631 5630 5629 5627 5628 5628 5629 5630 5631 5632
5665 5663 5662 5660 5658 5656 5655 5653 5652 5650 5649 5647 5645 5644 5642 5640 5638 5637 5636 5634 5633 5631 5630 5628 5627 5626 5625 5624 5623 5622 5621 5620 5620 5620 5620 5621 5622 5624
5657 5655 5653 5651 5650 5648 5646 5644 5643 5641 5640 5638 5636 5635 5633 5631 5629 5628 5627 5625 5624 5623 5621 5620 5619 5618 5617 5616 5615 5614 5614 5613 5613 5613 5613 5613 5615 5616